This demonstration page uses our WeatherBlox Daily Observations layout. Learn more.

Left ArrowRight Arrow

44.89941, -97.11507

Hourly Observations for July 7, 2020

Temp ( °F °C ) Dew Point ( °F °C ) Humidity (%) Winds ( mph kmh ) Pressure ( in mb ) Visibility ( mi km ) Precip ( " mm )
12:53 am 00:53 Clear 70 21.1 66 18.9 87 87 ESE 3 6 29.91 1013 10 16 0.00 0.00
1:53 am 01:53 Clear 66 18.9 64 17.8 93 93 SSW 5 7 29.96 1015 10 16 0.00 0.00
2:53 am 02:53 Mostly Cloudy 70 21.1 67 19.4 90 90 W 6 9 29.97 1015 10 16 0.00 0.00
3:02 am 03:02 Cloudy with Nearby Thunderstorms 71 21.7 69 20.6 94 94 Calm 29.93 1014 9 14 0.00 0.00
3:11 am 03:11 Cloudy with Nearby Thunderstorms 70 21.1 69 20.6 97 97 S 6 9 29.94 1014 9 14 0.00 0.00
3:14 am 03:14 Cloudy with Thunderstorms 70 21.1 69 20.6 97 97 undefined N/A 29.95 1014 8 13 0.00 0.00
3:22 am 03:22 Cloudy with Strong Thunderstorms 67 19.4 65 18.3 93 93 W 20 31 29.98 1015 2 3 0.17 4.32
3:27 am 03:27 Cloudy with Strong Thunderstorms 66 18.9 64 17.8 93 93 Calm 29.98 1015 1 2 0.29 7.37
3:34 am 03:34 Cloudy with Thunderstorms 66 18.9 65 18.3 96 96 ESE 7 11 29.96 1015 2 3 0.32 8.13
3:36 am 03:36 Cloudy with Thunderstorms 66 18.9 65 18.3 96 96 SE 7 11 29.96 1015 3 5 0.32 8.13
3:53 am 03:53 Mostly Cloudy with Nearby Thunderstorms 66 18.9 65 18.3 96 96 ESE 9 15 29.92 1013 10 16 0.34 8.64
4:13 am 04:13 Mostly Clear 66 18.9 63 17.2 90 90 SE 3 6 29.91 1013 10 16 0.00 0.00
4:53 am 04:53 Clear 66 18.9 63 17.2 90 90 ESE 6 9 29.87 1012 10 16 0.00 0.00
5:53 am 05:53 Sunny 66 18.9 62 16.7 87 87 SW 13 20 29.89 1012 10 16 0.00 0.00
6:53 am 06:53 Sunny 66 18.9 63 17.2 90 90 NNW 3 6 29.92 1013 10 16 0.00 0.00
7:53 am 07:53 Sunny 68 20 65 18.3 90 90 NNE 10 17 29.93 1014 10 16 0.00 0.00
8:53 am 08:53 Sunny 73 22.8 63 17.2 71 71 N 7 11 29.94 1014 10 16 0.00 0.00
9:53 am 09:53 Sunny 76 24.4 62 16.7 62 62 N 6 9 29.94 1014 10 16 0.00 0.00
10:53 am 10:53 Sunny 79 26.1 61 16.1 54 54 VRB 3 6 29.93 1013 10 16 0.00 0.00
11:53 am 11:53 Sunny 79 26.1 64 17.8 60 60 SE 6 9 29.92 1013 10 16 0.00 0.00
12:53 pm 12:53 Sunny 80 26.7 64 17.8 58 58 SSE 8 13 29.92 1013 10 16 0.00 0.00
1:53 pm 13:53 Sunny 81 27.2 66 18.9 61 61 SSE 8 13 29.91 1013 10 16 0.00 0.00
2:53 pm 14:53 Sunny 81 27.2 65 18.3 58 58 S 10 17 29.90 1012 10 16 0.00 0.00
3:53 pm 15:53 Sunny 82 27.8 66 18.9 58 58 SE 9 15 29.88 1012 10 16 0.00 0.00
4:53 pm 16:53 Sunny 82 27.8 65 18.3 56 56 SSE 13 20 29.87 1012 10 16 0.00 0.00
5:53 pm 17:53 Sunny 81 27.2 66 18.9 61 61 SSE 13 20 29.85 1011 10 16 0.00 0.00
6:53 pm 18:53 Sunny 81 27.2 65 18.3 58 58 SE 12 19 29.83 1010 10 16 0.00 0.00
7:53 pm 19:53 Sunny 80 26.7 68 20 67 67 ESE 9 15 29.82 1010 10 16 0.00 0.00
8:53 pm 20:53 Sunny 78 25.6 67 19.4 69 69 SE 6 9 29.80 1009 10 16 0.00 0.00
9:53 pm 21:53 Clear 75 23.9 67 19.4 76 76 SE 9 15 29.79 1009 10 16 0.00 0.00
10:53 pm 22:53 Clear 74 23.3 68 20 82 82 SE 9 15 29.80 1009 10 16 0.00 0.00
11:53 pm 23:53 Clear 75 23.9 67 19.4 76 76 SSE 14 22 29.78 1009 10 16 0.00 0.00

Powered by AerisWeather